| time (UTC) | temp C | wind direction | speed KPH | gust KPH | rain 1hr cm | rain 24hr cm | rain mn cm | humidity % | barometer mb |
| 20260505091528 | 13 | 129 | 0.0 | 1.6 | 0.00 | 0.00 | 0.00 | 68 | 1009.0 |
| 20260505090027 | 14 | 129 | 0.0 | 0.0 | 0.00 | 0.00 | 0.00 | 67 | 1009.0 |
| 20260505084529 | 14 | 129 | 0.0 | 1.6 | 0.00 | 0.00 | 0.00 | 65 | 1009.0 |
| 20260505081527 | 15 | 129 | 0.0 | 1.6 | 0.00 | 0.00 | 0.00 | 63 | 1009.0 |
| 20260505080027 | 15 | 129 | 0.0 | 1.6 | 0.00 | 0.00 | 0.00 | 62 | 1009.0 |
| 20260505074530 | 15 | 129 | 0.0 | 1.6 | 0.00 | 0.00 | 0.00 | 61 | 1008.9 |
| 20260505071527 | 16 | 129 | 0.0 | 1.6 | 0.00 | 0.00 | 0.00 | 59 | 1008.8 |
| 20260505070030 | 16 | 127 | 0.0 | 1.6 | 0.00 | 0.00 | 0.00 | 58 | 1008.6 |
| 20260505064532 | 16 | 125 | 0.0 | 1.6 | 0.00 | 0.00 | 0.00 | 56 | 1008.6 |
| 20260505061529 | 16 | 116 | 0.0 | 0.0 | 0.00 | 0.00 | 0.00 | 53 | 1008.5 |
| 20260505060029 | 17 | 116 | 0.0 | 1.6 | 0.00 | 0.00 | 0.00 | 52 | 1008.4 |
| 20260505054543 | 17 | 127 | 0.0 | 0.0 | 0.00 | 0.00 | 0.00 | 50 | 1008.4 |
| 20260505051525 | 17 | 110 | 0.0 | 1.6 | 0.00 | 0.00 | 0.00 | 47 | 1008.3 |
| 20260505041523 | 18 | 96 | 0.0 | 1.6 | 0.00 | 0.00 | 0.00 | 44 | 1007.9 |
| 20260505040023 | 19 | 126 | 0.0 | 1.6 | 0.00 | 0.00 | 0.00 | 43 | 1007.7 |
| 20260505034527 | 20 | 122 | 0.0 | 1.6 | 0.00 | 0.00 | 0.00 | 41 | 1007.4 |
| 20260505031523 | 20 | 108 | 0.0 | 1.6 | 0.00 | 0.00 | 0.00 | 39 | 1006.8 |
| 20260505030038 | 21 | 103 | 0.0 | 4.8 | 0.00 | 0.00 | 0.00 | 38 | 1006.6 |
| 20260505024523 | 21 | 181 | 1.6 | 8.0 | 0.00 | 0.00 | 0.00 | 38 | 1006.4 |
| 20260505021523 | 22 | 101 | 0.0 | 3.2 | 0.00 | 0.00 | 0.00 | 37 | 1006.3 |
| 20260505020020 | 23 | 94 | 0.0 | 12.9 | 0.00 | 0.00 | 0.00 | 36 | 1006.3 |
| 20260505014523 | 23 | 96 | 1.6 | 9.7 | 0.00 | 0.00 | 0.00 | 35 | 1006.2 |
| 20260505011513 | 23 | 73 | 1.6 | 8.0 | 0.00 | 0.00 | 0.00 | 34 | 1006.2 |
| 20260505010012 | 24 | 110 | 0.0 | 9.7 | 0.00 | 0.00 | 0.00 | 34 | 1006.2 |
| 20260505004527 | 24 | 110 | 1.6 | 8.0 | 0.00 | 0.00 | 0.00 | 34 | 1006.2 |
| 20260505001511 | 25 | 104 | 1.6 | 11.3 | 0.00 | 0.00 | 0.00 | 32 | 1005.9 |
| 20260505000015 | 25 | 90 | 1.6 | 9.7 | 0.00 | 0.00 | 0.00 | 32 | 1006.0 |
| 20260504234508 | 25 | 115 | 0.0 | 11.3 | 0.00 | 0.00 | 0.00 | 31 | 1006.0 |
| 20260504231505 | 26 | 112 | 4.8 | 14.5 | 0.00 | 0.00 | 0.00 | 28 | 1006.0 |
| 20260504230003 | 26 | 96 | 1.6 | 6.4 | 0.00 | 0.00 | 0.00 | 26 | 1006.0 |
| 20260504224503 | 26 | 126 | 0.0 | 11.3 | 0.00 | 0.00 | 0.00 | 26 | 1006.1 |
| 20260504221501 | 27 | 129 | 1.6 | 12.9 | 0.00 | 0.00 | 0.00 | 27 | 1006.2 |
| 20260504220059 | 26 | 108 | 3.2 | 11.3 | 0.00 | 0.00 | 0.00 | 27 | 1006.3 |
| 20260504214603 | 27 | 110 | 3.2 | 9.7 | 0.00 | 0.00 | 0.00 | 27 | 1006.4 |
| 20260504211600 | 27 | 123 | 0.0 | 17.7 | 0.00 | 0.00 | 0.00 | 28 | 1006.6 |
| 20260504210059 | 26 | 128 | 3.2 | 17.7 | 0.00 | 0.00 | 0.00 | 28 | 1006.7 |
| 20260504204558 | 26 | 173 | 1.6 | 9.7 | 0.00 | 0.00 | 0.00 | 28 | 1006.8 |
| 20260504201554 | 26 | 117 | 1.6 | 4.8 | 0.00 | 0.00 | 0.00 | 27 | 1007.0 |
| 20260504200051 | 26 | 101 | 0.0 | 16.1 | 0.00 | 0.00 | 0.00 | 29 | 1007.0 |
| 20260504194556 | 26 | 115 | 1.6 | 6.4 | 0.00 | 0.00 | 0.00 | 29 | 1007.1 |
| 20260504191610 | 25 | 117 | 0.0 | 8.0 | 0.00 | 0.00 | 0.00 | 29 | 1007.4 |
| 20260504190049 | 26 | 91 | 0.0 | 8.0 | 0.00 | 0.00 | 0.00 | 30 | 1007.4 |
| 20260504184555 | 25 | 120 | 1.6 | 8.0 | 0.00 | 0.00 | 0.00 | 30 | 1007.6 |
| 20260504181534 | 23 | 122 | 0.0 | 16.1 | 0.00 | 0.00 | 0.00 | 34 | 1007.8 |
| 20260504180034 | 23 | 115 | 0.0 | 3.2 | 0.00 | 0.00 | 0.00 | 33 | 1007.9 |
| 20260504174528 | 23 | 127 | 0.0 | 4.8 | 0.00 | 0.00 | 0.00 | 35 | 1007.9 |
| 20260504171529 | 19 | 119 | 0.0 | 3.2 | 0.00 | 0.00 | 0.00 | 51 | 1008.1 |